Time,TemperatureF,DewpointF,PressureIn,WindDirection,WindDirectionDegrees,WindSpeedMPH,WindSpeedGustMPH,Humidity,HourlyPrecipIn,Conditions,Clouds,dailyrainin,SolarRadiationWatts/m^2,SoftwareType,DateUTC
2013-03-12 00:03:00,47.0,47.0,-100.00,South,186,11.0,21.0,100,0.04,,,0.06,0.000000,,2013-03-12 04:03:00,
2013-03-12 00:32:00,47.0,47.0,-100.00,SSW,193,9.0,19.0,99,0.01,,,0.07,0.000000,,2013-03-12 04:32:00,
2013-03-12 00:43:00,47.0,47.0,-100.00,SSW,193,9.0,19.0,99,0.01,,,0.07,0.000000,,2013-03-12 04:43:00,
2013-03-12 00:52:00,47.0,47.0,-100.00,SSW,193,9.0,19.0,99,0.01,,,0.07,0.000000,,2013-03-12 04:52:00,
2013-03-12 01:02:00,47.0,47.0,-100.00,SSW,193,9.0,19.0,99,0.01,,,0.07,0.000000,,2013-03-12 05:02:00,
2013-03-12 01:32:00,47.0,47.0,-100.00,SSW,198,11.0,20.0,99,0.15,,,0.22,0.000000,,2013-03-12 05:32:00,
2013-03-12 01:42:00,47.0,47.0,-100.00,SSW,198,11.0,20.0,99,0.15,,,0.22,0.000000,,2013-03-12 05:42:00,
2013-03-12 01:52:00,47.0,47.0,-100.00,SSW,198,11.0,20.0,99,0.15,,,0.22,0.000000,,2013-03-12 05:52:00,
2013-03-12 02:02:00,47.0,47.0,-100.00,SSW,198,11.0,20.0,99,0.15,,,0.22,0.000000,,2013-03-12 06:02:00,
2013-03-12 02:32:00,46.0,46.0,-100.00,SSW,199,10.0,22.0,100,0.18,,,0.40,0.000000,,2013-03-12 06:32:00,
2013-03-12 02:42:00,46.0,46.0,-100.00,SSW,199,10.0,22.0,100,0.18,,,0.40,0.000000,,2013-03-12 06:42:00,
2013-03-12 02:52:00,46.0,46.0,-100.00,SSW,199,10.0,22.0,100,0.18,,,0.40,0.000000,,2013-03-12 06:52:00,
2013-03-12 03:02:00,46.0,46.0,-100.00,SSW,199,10.0,22.0,100,0.18,,,0.40,0.000000,,2013-03-12 07:02:00,
2013-03-12 03:32:00,44.0,44.0,-100.00,WNW,282,5.0,19.0,100,0.10,,,0.50,0.000000,,2013-03-12 07:32:00,
2013-03-12 03:42:00,44.0,44.0,-100.00,WNW,282,5.0,19.0,100,0.10,,,0.50,0.000000,,2013-03-12 07:42:00,
2013-03-12 03:52:00,44.0,44.0,-100.00,WNW,282,5.0,19.0,100,0.10,,,0.50,0.000000,,2013-03-12 07:52:00,
2013-03-12 04:02:00,44.0,44.0,-100.00,WNW,282,5.0,19.0,100,0.10,,,0.50,0.000000,,2013-03-12 08:02:00,
2013-03-12 04:33:00,42.0,42.0,-100.00,WNW,288,4.0,14.0,100,0.02,,,0.52,0.000000,,2013-03-12 08:33:00,
2013-03-12 04:42:00,42.0,42.0,-100.00,WNW,288,4.0,14.0,100,0.02,,,0.52,0.000000,,2013-03-12 08:42:00,
2013-03-12 04:52:00,42.0,42.0,-100.00,WNW,288,4.0,14.0,100,0.02,,,0.52,0.000000,,2013-03-12 08:52:00,
2013-03-12 05:03:00,42.0,42.0,-100.00,WNW,288,4.0,14.0,100,0.02,,,0.52,0.000000,,2013-03-12 09:03:00,
2013-03-12 05:33:00,41.0,41.0,-100.00,West,271,5.0,12.0,100,0.03,,,0.55,0.000000,,2013-03-12 09:33:00,
2013-03-12 05:43:00,41.0,41.0,-100.00,West,271,5.0,12.0,100,0.03,,,0.55,0.000000,,2013-03-12 09:43:00,
2013-03-12 05:52:00,41.0,41.0,-100.00,West,271,5.0,12.0,100,0.03,,,0.55,0.000000,,2013-03-12 09:52:00,
2013-03-12 06:02:00,41.0,41.0,-100.00,West,271,5.0,12.0,100,0.03,,,0.55,0.000000,,2013-03-12 10:02:00,
2013-03-12 06:33:00,41.0,41.0,-100.00,West,269,5.0,10.0,100,0.04,,,0.59,0.000000,,2013-03-12 10:33:00,
2013-03-12 06:42:00,41.0,41.0,-100.00,West,269,5.0,10.0,100,0.04,,,0.59,0.000000,,2013-03-12 10:42:00,
2013-03-12 06:53:00,41.0,41.0,-100.00,West,269,5.0,10.0,100,0.04,,,0.59,0.000000,,2013-03-12 10:53:00,
2013-03-12 07:02:00,41.0,41.0,-100.00,West,269,5.0,10.0,100,0.04,,,0.59,0.000000,,2013-03-12 11:02:00,
2013-03-12 07:33:00,37.0,37.0,-100.00,NW,311,5.0,14.0,100,0.00,,,0.59,0.000000,,2013-03-12 11:33:00,
2013-03-12 07:42:00,37.0,37.0,-100.00,NW,311,5.0,14.0,100,0.00,,,0.59,0.000000,,2013-03-12 11:42:00,
2013-03-12 07:52:00,37.0,37.0,-100.00,NW,311,5.0,14.0,100,0.00,,,0.59,0.000000,,2013-03-12 11:52:00,
2013-03-12 08:03:00,37.0,37.0,-100.00,NW,311,5.0,14.0,100,0.00,,,0.59,0.000000,,2013-03-12 12:03:00,
2013-03-12 08:32:00,36.0,36.0,-100.00,NW,317,5.0,12.0,100,0.00,,,0.59,3.000000,,2013-03-12 12:32:00,
2013-03-12 08:42:00,36.0,36.0,-100.00,NW,317,5.0,12.0,100,0.00,,,0.59,3.000000,,2013-03-12 12:42:00,
2013-03-12 08:52:00,36.0,36.0,-100.00,NW,317,5.0,12.0,100,0.00,,,0.59,3.000000,,2013-03-12 12:52:00,
2013-03-12 09:02:00,36.0,36.0,-100.00,NW,317,5.0,12.0,100,0.00,,,0.59,3.000000,,2013-03-12 13:02:00,
2013-03-12 09:33:00,35.0,35.0,-100.00,WNW,293,5.0,13.0,100,0.00,,,0.59,27.000000,,2013-03-12 13:33:00,
2013-03-12 09:43:00,35.0,35.0,-100.00,WNW,293,5.0,13.0,100,0.00,,,0.59,27.000000,,2013-03-12 13:43:00,
2013-03-12 09:52:00,35.0,35.0,-100.00,WNW,293,5.0,13.0,100,0.00,,,0.59,27.000000,,2013-03-12 13:52:00,
2013-03-12 10:02:00,35.0,35.0,-100.00,WNW,293,5.0,13.0,100,0.00,,,0.59,27.000000,,2013-03-12 14:02:00,
2013-03-12 10:33:00,35.0,35.0,-100.00,WNW,299,4.0,16.0,100,0.00,,,0.59,28.000000,,2013-03-12 14:33:00,
2013-03-12 10:43:00,35.0,35.0,-100.00,WNW,299,4.0,16.0,100,0.00,,,0.59,28.000000,,2013-03-12 14:43:00,
2013-03-12 10:53:00,35.0,35.0,-100.00,WNW,299,4.0,16.0,100,0.00,,,0.59,28.000000,,2013-03-12 14:53:00,
2013-03-12 11:03:00,35.0,35.0,-100.00,WNW,299,4.0,16.0,100,0.00,,,0.59,28.000000,,2013-03-12 15:03:00,
2013-03-12 11:32:00,34.0,34.0,-100.00,WNW,285,6.0,15.0,100,0.00,,,0.59,59.000000,,2013-03-12 15:32:00,
2013-03-12 11:43:00,34.0,34.0,-100.00,WNW,285,6.0,15.0,100,0.00,,,0.59,59.000000,,2013-03-12 15:43:00,
2013-03-12 11:53:00,34.0,34.0,-100.00,WNW,285,6.0,15.0,100,0.00,,,0.59,59.000000,,2013-03-12 15:53:00,
2013-03-12 12:03:00,34.0,34.0,-100.00,WNW,285,6.0,15.0,100,0.00,,,0.59,59.000000,,2013-03-12 16:03:00,
2013-03-12 12:33:00,35.0,34.0,-100.00,WNW,284,4.0,14.0,95,0.00,,,0.59,121.000000,,2013-03-12 16:33:00,
2013-03-12 12:43:00,35.0,34.0,-100.00,WNW,284,4.0,14.0,95,0.00,,,0.59,121.000000,,2013-03-12 16:43:00,
2013-03-12 12:53:00,35.0,34.0,-100.00,WNW,284,4.0,14.0,95,0.00,,,0.59,121.000000,,2013-03-12 16:53:00,
2013-03-12 13:03:00,35.0,34.0,-100.00,WNW,284,4.0,14.0,95,0.00,,,0.59,121.000000,,2013-03-12 17:03:00,
2013-03-12 13:34:00,35.0,32.0,-100.00,West,280,6.0,14.0,87,0.00,,,0.59,101.000000,,2013-03-12 17:34:00,
2013-03-12 13:44:00,35.0,32.0,-100.00,West,280,6.0,14.0,87,0.00,,,0.59,101.000000,,2013-03-12 17:44:00,
2013-03-12 13:54:00,35.0,32.0,-100.00,West,280,6.0,14.0,87,0.00,,,0.59,101.000000,,2013-03-12 17:54:00,
2013-03-12 14:03:00,35.0,32.0,-100.00,West,280,6.0,14.0,87,0.00,,,0.59,101.000000,,2013-03-12 18:03:00,
2013-03-12 14:33:00,36.0,30.0,-100.00,WNW,285,6.0,11.0,80,0.00,,,0.59,123.000000,,2013-03-12 18:33:00,
2013-03-12 14:43:00,36.0,30.0,-100.00,WNW,285,6.0,11.0,80,0.00,,,0.59,123.000000,,2013-03-12 18:43:00,
2013-03-12 14:53:00,36.0,30.0,-100.00,WNW,285,6.0,11.0,80,0.00,,,0.59,123.000000,,2013-03-12 18:53:00,
2013-03-12 15:04:00,36.0,30.0,-100.00,WNW,285,6.0,11.0,80,0.00,,,0.59,123.000000,,2013-03-12 19:04:00,
2013-03-12 15:33:00,35.0,29.0,-100.00,WNW,286,8.0,17.0,80,0.00,,,-99.99,96.000000,,2013-03-12 19:33:00,
2013-03-12 15:44:00,35.0,29.0,-100.00,WNW,286,8.0,17.0,80,0.00,,,-99.99,96.000000,,2013-03-12 19:44:00,
2013-03-12 15:53:00,35.0,29.0,-100.00,WNW,286,8.0,17.0,80,0.00,,,-99.99,96.000000,,2013-03-12 19:53:00,
2013-03-12 16:02:00,35.0,29.0,-100.00,WNW,286,8.0,17.0,80,0.00,,,-99.99,96.000000,,2013-03-12 20:02:00,
2013-03-12 16:33:00,34.0,28.0,-100.00,WNW,303,7.0,17.0,80,0.00,,,0.59,92.000000,,2013-03-12 20:33:00,
2013-03-12 16:42:00,34.0,28.0,-100.00,WNW,303,7.0,17.0,80,0.00,,,0.59,92.000000,,2013-03-12 20:42:00,
2013-03-12 16:53:00,34.0,28.0,-100.00,WNW,303,7.0,17.0,80,0.00,,,0.59,92.000000,,2013-03-12 20:53:00,
2013-03-12 17:03:00,34.0,28.0,-100.00,WNW,303,7.0,17.0,80,0.00,,,0.59,92.000000,,2013-03-12 21:03:00,
2013-03-12 17:33:00,33.0,29.0,-100.00,West,277,7.0,17.0,85,0.00,,,0.59,44.000000,,2013-03-12 21:33:00,
2013-03-12 17:43:00,33.0,29.0,-100.00,West,277,7.0,17.0,85,0.00,,,0.59,44.000000,,2013-03-12 21:43:00,
2013-03-12 17:53:00,33.0,29.0,-100.00,West,277,7.0,17.0,85,0.00,,,0.59,44.000000,,2013-03-12 21:53:00,
2013-03-12 18:03:00,33.0,29.0,-100.00,West,277,7.0,17.0,85,0.00,,,0.59,44.000000,,2013-03-12 22:03:00,
2013-03-12 18:33:00,32.0,28.0,-100.00,WNW,302,6.0,18.0,84,0.00,,,0.59,28.000000,,2013-03-12 22:33:00,
2013-03-12 18:43:00,32.0,28.0,-100.00,WNW,302,6.0,18.0,84,0.00,,,0.59,28.000000,,2013-03-12 22:43:00,
2013-03-12 18:54:00,32.0,28.0,-100.00,WNW,302,6.0,18.0,84,0.00,,,0.59,28.000000,,2013-03-12 22:54:00,
2013-03-12 19:03:00,32.0,28.0,-100.00,WNW,302,6.0,18.0,84,0.00,,,0.59,28.000000,,2013-03-12 23:03:00,
2013-03-12 19:34:00,32.0,27.0,-100.00,WNW,283,8.0,14.0,83,0.00,,,0.59,11.000000,,2013-03-12 23:34:00,
2013-03-12 19:43:00,32.0,27.0,-100.00,WNW,283,8.0,14.0,83,0.00,,,0.59,11.000000,,2013-03-12 23:43:00,
2013-03-12 19:53:00,32.0,27.0,-100.00,WNW,283,8.0,14.0,83,0.00,,,0.59,11.000000,,2013-03-12 23:53:00,
2013-03-12 20:03:00,32.0,27.0,-100.00,WNW,283,8.0,14.0,83,0.00,,,0.59,11.000000,,2013-03-13 00:03:00,
2013-03-12 20:33:00,31.0,26.0,-100.00,WNW,283,6.0,15.0,83,0.00,,,0.59,1.000000,,2013-03-13 00:33:00,
2013-03-12 20:42:00,31.0,26.0,-100.00,WNW,283,6.0,15.0,83,0.00,,,0.59,1.000000,,2013-03-13 00:42:00,
2013-03-12 20:53:00,31.0,26.0,-100.00,WNW,283,6.0,15.0,83,0.00,,,0.59,1.000000,,2013-03-13 00:53:00,
2013-03-12 21:03:00,31.0,26.0,-100.00,WNW,283,6.0,15.0,83,0.00,,,0.59,1.000000,,2013-03-13 01:03:00,
2013-03-12 21:33:00,31.0,27.0,-100.00,West,278,5.0,12.0,84,0.00,,,0.59,0.000000,,2013-03-13 01:33:00,
2013-03-12 21:43:00,31.0,27.0,-100.00,West,278,5.0,12.0,84,0.00,,,0.59,0.000000,,2013-03-13 01:43:00,
2013-03-12 21:53:00,31.0,27.0,-100.00,West,278,5.0,12.0,84,0.00,,,0.59,0.000000,,2013-03-13 01:53:00,
2013-03-12 22:03:00,31.0,27.0,-100.00,West,278,5.0,12.0,84,0.00,,,0.59,0.000000,,2013-03-13 02:03:00,
2013-03-12 22:33:00,31.0,28.0,-100.00,West,275,5.0,16.0,88,0.00,,,0.57,0.000000,,2013-03-13 02:33:00,
2013-03-12 22:43:00,31.0,28.0,-100.00,West,275,5.0,16.0,88,0.00,,,0.57,0.000000,,2013-03-13 02:43:00,
2013-03-12 22:53:00,31.0,28.0,-100.00,West,275,5.0,16.0,88,0.00,,,0.57,0.000000,,2013-03-13 02:53:00,
2013-03-12 23:02:00,31.0,28.0,-100.00,West,275,5.0,16.0,88,0.00,,,0.57,0.000000,,2013-03-13 03:02:00,
2013-03-12 23:33:00,31.0,28.0,-100.00,WNW,297,6.0,14.0,90,0.00,,,0.53,0.000000,,2013-03-13 03:33:00,
2013-03-12 23:42:00,31.0,28.0,-100.00,WNW,297,6.0,14.0,90,0.00,,,0.53,0.000000,,2013-03-13 03:42:00,
2013-03-12 23:53:00,31.0,28.0,-100.00,WNW,297,6.0,14.0,90,0.00,,,0.53,0.000000,,2013-03-13 03:53:00,